This is the latest recevied weather packets stored in our database for station/object KT2UU-13. If no packets are shown the sender has not sent any weather packets the latest 10 day(s).
| Time | Temp. | Humidity | Pressure | Rain* | Wind** | Luminosity | Snow |
|---|---|---|---|---|---|---|---|
| 1777862876 | 10.56° C | 81% | 1019.2 hPa | 0 mm | - | - | - |
| 1777862573 | 10.56° C | 81% | 1019.1 hPa | 0 mm | - | - | - |
| 1777862270 | 11.11° C | 81% | 1019.3 hPa | 0 mm | - | - | - |
| 1777861966 | 11.11° C | 79% | 1019.1 hPa | 0 mm | - | - | - |
| 1777861662 | 11.11° C | 78% | 1018.9 hPa | 0 mm | - | - | - |
| 1777861358 | 11.67° C | 78% | 1019 hPa | 0 mm | - | - | - |
| 1777861055 | 11.67° C | 77% | 1018.8 hPa | 0 mm | - | - | - |
| 1777860752 | 11.67° C | 76% | 1018.9 hPa | 0 mm | - | - | - |
| 1777860444 | 11.67° C | 75% | 1018.9 hPa | 0 mm | - | - | - |
| 1777860140 | 12.22° C | 74% | 1018.9 hPa | 0 mm | - | - | - |
| 1777859836 | 12.22° C | 74% | 1018.7 hPa | 0 mm | - | - | - |
| 1777859532 | 12.22° C | 73% | 1018.6 hPa | 0 mm | - | - | - |
| 1777859228 | 12.22° C | 73% | 1018.6 hPa | 0 mm | - | - | - |
| 1777858926 | 12.78° C | 71% | 1018.7 hPa | 0 mm | - | - | - |
| 1777858623 | 12.78° C | 69% | 1018.5 hPa | 0 mm | - | - | - |
| 1777858321 | 13.33° C | 68% | 1018.7 hPa | 0 mm | - | - | - |
| 1777858017 | 13.33° C | 68% | 1018.5 hPa | 0 mm | - | - | - |
| 1777857715 | 13.89° C | 64% | 1018.4 hPa | 0 mm | - | - | - |
| 1777857411 | 14.44° C | 63% | 1018.3 hPa | 0 mm | - | - | - |
| 1777857108 | 14.44° C | 61% | 1018.3 hPa | 0 mm | - | - | - |
| 1777856804 | 15° C | 58% | 1018.2 hPa | 0 mm | - | - | - |
| 1777856500 | 15.56° C | 57% | 1018.1 hPa | 0 mm | - | - | - |
| 1777856197 | 16.11° C | 53% | 1018.3 hPa | 0 mm | - | - | - |
| 1777855893 | 16.11° C | 51% | 1018 hPa | 0 mm | - | - | - |
| 1777855592 | 16.11° C | 52% | 1018.1 hPa | 0 mm | - | - | - |
* Rain latest hour (hover to see other rain measurements)
** Current wind speed in m/s (hover to see current wind gust speed)